Hourly Data Report for September 16, 2006

TORONTO CITY
ONTARIO

43°40'00.000" N
79°24'00.000" W
112.50 m
6158355
71508
XTO

Download Data

Hourly Data (September 2006)
Hourly Data Report for September 16, 2006
TIME
LST
Temp Definition
°C
Dew Point Definition
°C
Rel Hum Definition
%
Precip. Amount Definition
mm

Wind Dir Definition
10's deg

Wind Spd Definition
km/h
Visibility Definition
km
Stn Press Definition
kPa
Hmdx Definition


Wind Chill Definition


Weather Definition


00:00 18.4 17.3 93   LegendMM LegendMM   100.83     LegendNANA
01:00 18.3 17.2 93   LegendMM LegendMM   100.82     LegendNANA
02:00 18.2 17.5 96   LegendMM LegendMM   100.82     LegendNANA
03:00 18.3 17.4 94   LegendMM LegendMM   100.81     LegendNANA
04:00 18.2 17.1 93   LegendMM LegendMM   100.85     LegendNANA
05:00 18.2 17.1 93   LegendMM LegendMM   100.90     LegendNANA
06:00 17.9 17.0 94   LegendMM LegendMM   100.93     LegendNANA
07:00 17.9 16.6 92   LegendMM LegendMM   100.94     LegendNANA
08:00 18.4 16.8 90   LegendMM LegendMM   100.93     LegendNANA
09:00 19.0 16.6 86   LegendMM LegendMM   100.95     LegendNANA
10:00 18.9 16.1 84   LegendMM LegendMM   100.98     LegendNANA
11:00 19.7 16.4 81   LegendMM LegendMM   100.94     LegendNANA
12:00 20.4 16.4 78   LegendMM LegendMM   100.90 25   LegendNANA
13:00 20.4 15.8 75   LegendMM LegendMM   100.84 25   LegendNANA
14:00 21.0 15.3 70   LegendMM LegendMM   100.76 25   LegendNANA
15:00 21.3 15.6 70   LegendMM LegendMM   100.70 26   LegendNANA
16:00 20.6 16.3 76   LegendMM LegendMM   100.67 25   LegendNANA
17:00 20.0 16.0 78   LegendMM LegendMM   100.65 25   LegendNANA
18:00 19.0 16.2 84   LegendMM LegendMM   100.59     LegendNANA
19:00 18.0 16.0 88   LegendMM LegendMM   100.56     LegendNANA
20:00 17.4 16.1 92   LegendMM LegendMM   100.56     LegendNANA
21:00 16.9 16.2 96   LegendMM LegendMM   100.55     LegendNANA
22:00 16.7 16.2 97   LegendMM LegendMM   100.51     LegendNANA
23:00 17.4 17.0 97   LegendMM LegendMM   100.47     LegendNANA

Notes on Data Quality.

Legend

  • E = Estimated
  • M = Missing
  • NA = Not Available*
  • [empty] = Indicates an unobserved value
Date modified: